Location: Campestrin
(46.4667°N, 11.7167°E)
Time: 16:57:33
(UTC+00:00)

Cosmos 2344 - Pass Details

Date: 18 April 2021
Orbit: 1241 x 3001 km, 63.3° (Epoch: 06 May)

Event Time Altitude Azimuth Distance (km) Brightness Sun altitude
Rises 20:37:38 0° 237° (WSW) 4,244 6.4 -22.8°
Reaches altitude 10° 20:40:29 10° 243° (WSW) 3,224 5.8 -23.1°
Maximum altitude 20:47:43 54° 320° (NW) 1,511 4.3 -23.9°
Drops below altitude 10° 20:55:42 10° 37° (NE) 3,540 6.1 -24.8°
Sets 20:58:59 0° 42° (NE) 4,695 6.7 -25.1°
